Regional Weather Roundup
Issued by NWS

Home | Current Version | Previous Version | Text Only | Print | Product List | Glossary Off
Versions: 1 2 3 4 5 6 7 8 9 10 11 12 13 14 15 16 17 18 19 20 21 22 23 24 25 26 27 28 29 30 31 32 33 34 35 36 37 38 39 40 41 42 43 44 45 46 47 48 49 50

248
ASUS43 KDMX 090306
RWRIA

WEATHER ROUNDUP FOR IOWA
NATIONAL WEATHER SERVICE DES MOINES IA
900 PM CST THU DEC 08 2016

NOTE: "FAIR" INDICATES FEW OR NO CLOUDS BELOW 12,000 FEET WITH NO
SIGNIFICANT WEATHER AND/OR OBSTRUCTIONS TO VISIBILITY.

* - THESE STATIONS ARE NOT NWS STATIONS...THUS NOT UNDER NWS
QUALITY CONTROL.  THEY ALSO DO NOT REPORT WEATHER SUCH
AS PRECIPITATION OR FOG.

IAZ001>003-012>014-020>022-031>034-043>046-090400-
   NORTHWEST IOWA

CITY           SKY/WX    TMP DP  RH WIND       PRES   REMARKS
CARROLL *      CLEAR     16   9  73 NW15      30.58R WCI   1
CHEROKEE *     CLEAR     13   8  78 NW8       30.59S WCI   2
DENISON *      CLEAR     14   9  79 NW9       30.58S WCI   2
LE MARS *      CLEAR     12   7  79 NW9       30.63R WCI   0
ORANGE CITY *  CLEAR      9   7  92 NW8       30.58S WCI  -4
SHELDON *      CLEAR     10   7  85 NW10      30.56S WCI  -3
SIOUX CITY     CLEAR     15   7  70 NW9       30.64S WCI   3
SPENCER        CLEAR     11   7  84 W20       30.56S WCI  -7
STORM LAKE *   CLEAR     12   7  79 NW15G22   30.56R WCI  -4
$$

IAZ055>058-069>071-079>083-090>094-090400-
   SOUTHWEST IOWA

CITY           SKY/WX    TMP DP  RH WIND       PRES   REMARKS
ATLANTIC *     CLEAR     16   9  73 NW10      30.61R WCI   3
AUDUBON *      CLEAR     16   9  73 W8        30.58S WCI   5
CLARINDA *     CLEAR     18  10  73 NW9       30.64S WCI   6
COUNCIL BLFS * CLEAR     18   9  68 NW13      30.63R WCI   4
CRESTON *      CLEAR     14   7  73 NW10      30.59S WCI   1
HARLAN  *      CLEAR     12   9  85 W10       30.64S WCI  -1
LAMONI         CLEAR     15   8  73 NW8       30.58S WCI   4
RED OAK *      CLEAR     16   9  73 NW8       30.63S WCI   5
SHENANDOAH *   CLEAR     16   9  73 NW5       30.66R WCI   9
$$

IAZ047>049-059>061-072>074-084-090400-
   CENTRAL IOWA

CITY           SKY/WX    TMP DP  RH WIND       PRES   REMARKS
AMES           CLOUDY    20  13  74 NW13      30.56R WCI   7
ANKENY *       MOCLDY    19  10  68 NW13      30.58S WCI   7
BOONE *        CLOUDY    16  10  79 NW12      30.54S WCI   3
CHARITON *     CLEAR     18  10  73 NW9       30.56S WCI   6
DES MOINES     PTCLDY    20   9  62 NW15      30.57R WCI   6
GRINNELL*      MOCLDY    20  13  77 NW10      30.53S WCI   8
KNOXVILLE *    CLOUDY    21  10  63 W12       30.55R WCI   9
MARSHALLTOWN   CLOUDY    20  13  74 NW16      30.53R WCI   6
NEWTON *       CLOUDY    21  12  68 NW20G25   30.54R WCI   6
PELLA *        CLOUDY    22  12  66 NW10      30.56S WCI  11
PERRY *          N/A     16  12  84 W9        30.58R WCI   5
$$

IAZ004>006-015-016-023>025-035-036-090400-
   NORTH CENTRAL IOWA

CITY           SKY/WX    TMP DP  RH WIND       PRES   REMARKS
ALGONA *       FLURRIES  16  10  79 NW14G22   30.54R WCI   1
CLARION *      CLOUDY    18  10  73 NW16G23   30.53S WCI   3
ESTHERVILLE    FLURRIES  14   9  80 NW17      30.54R WCI  -3
FORT DODGE *   CLEAR     16   5  62 NW7       30.56S WCI   6
MASON CITY     FLURRIES  16   9  74 NW18      30.53R WCI   0
FOREST CITY *  LGT SNOW  18  10  73 NW14G20   30.52R WCI   4
WEBSTER CITY * CLOUDY    18  12  79 NW15      30.53R WCI   3
IOWA FALLS *   CLOUDY    20  13  74 NW14      30.53S WCI   6
$$

IAZ007>011-017>019-026>030-037>042-050>054-066-090400-
   NORTHEAST IOWA

CITY           SKY/WX    TMP DP  RH WIND       PRES   REMARKS
CEDAR RAPIDS   FLURRIES  20  17  88 NW10      30.50R WCI   9
CHARLES CITY * FLURRIES  18  10  73 NW14G21   30.50S WCI   4
CLINTON *      FLURRIES  21  16  81 W21       30.47S WCI   5
DECORAH *      CLOUDY    19  14  79 W8G14     30.44S WCI   9
DUBUQUE        CLOUDY    19  13  77 NW18      30.44S WCI   4
MONTICELLO *   CLOUDY    21  12  68 NW15G22   30.48R WCI   8
OELWEIN *      CLOUDY    18  10  73 NW17      30.49R WCI   2
WATERLOO       FLURRIES  19  12  74 NW14      30.52R WCI   6
$$

IAZ064-065-067-068-078-090400-
   EAST CENTRAL IOWA

CITY           SKY/WX    TMP DP  RH WIND       PRES   REMARKS
DAVENPORT      FLURRIES  21  12  68 NW14G23   30.50R WCI   8
IOWA CITY      CLOUDY    24  16  71 NW9       30.53S WCI  14
MUSCATINE *    CLOUDY    25  16  68 NW9G17    30.53S WCI  15
QUAD CITIES    CLOUDY    23  13  65 NW15G28   30.50R WCI  10
$$

IAZ062-063-075>077-085>089-095>099-090400-
   SOUTHEAST IOWA

CITY           SKY/WX    TMP DP  RH WIND       PRES   REMARKS
BURLINGTON     CLOUDY    22  13  68 W8        30.52F WCI  12
FAIRFIELD *    CLOUDY    19  12  73 W8        30.54R WCI   9
FORT MADISON * CLOUDY    21  12  68 W12       30.54S WCI   9
KEOKUK *       CLOUDY    21  12  68 W8        30.55S WCI  12
OSKALOOSA *    CLOUDY    21  14  76 NW16      30.55R WCI   7
CENTERVILLE *    N/A     16  10  79 W9        30.58S WCI   4
OTTUMWA        CLOUDY    22  11  62 W12       30.53F WCI  10
WASHINGTON *   FLURRIES  23  16  74 NW12      30.53S WCI  12
$$

ABBREVIATIONS USED IN REMARKS
   TC - TEMPERATURES IN CELSIUS
  WCI - WIND CHILL INDEX
   HX - HEAT INDEX
  VSB - VISIBILITY
$$





USA.gov is the U.S. government's official web portal to all federal, state and local government web resources and services.